{"data":{"norad_id":64480,"intl_designator":"2025-133J","name":"STARLINK-34518","alt_names":[],"object_type":"PAYLOAD","status":"ACTIVE","operator":null,"country":"US","launch_date":"2025-06-23","launch_site_code":"AFETR","launch_vehicle":null,"mission":null,"orbit_class":"UNKNOWN","rcs_meters":null,"size_class":null,"mass_kg":null,"dimensions":null,"purposes":["comms"],"wikipedia_slug":null,"has_3d_model":false,"image_url":null,"decayed_at":null,"tle_current":{"epoch":"2026-09-20T19:06:22.735008Z","epoch_age_seconds":106045,"freshness":"FRESH","line1":"1 64480U 25133J   26263.79609647  .00017933  00000+0  54047-3 0  9998","line2":"2 64480  53.1564 288.1730 0003228  83.1687 276.9683 15.34405996 70931","mean_motion":15.34405996,"eccentricity":0.0003228,"inclination_deg":53.1564,"raan_deg":288.173,"arg_perigee_deg":83.1687,"mean_anomaly_deg":276.9683,"bstar":0.00054047,"rev_number":7093,"period_min":93.847391352347,"perigee_km":460.47720141272,"apogee_km":464.89363636636,"semimajor_km":6840.8224188895,"source":"CELESTRAK","updated_at":"2026-09-21T09:00:35.359685Z"}}}